Location: Santa Fe
(35.6870°N, 105.9370°W)
Time: 08:31:02
(UTC-06:00)

Amateur Radio Satellites - All Passes

Search period start: 19 April 2014 08:01
Search period end: 20 April 2014 08:01
Location: Santa Fe, 35.6870°N, 105.9370°W

Satellite Date Start Highest point End Downlink Frequencies (MHz)
Time Altitude Azimuth
PANSAT 19 Apr 08:12:14 08:13:59 13° 160° (SSE) 08:15:44 not established
JAS-2 19 Apr 08:15:57 08:21:25 86° 103° (ESE) 08:27:29 435.800 - 435.900 CW/SSB, 435.910 FM
RS-15 19 Apr 08:26:34 08:37:30 52° 307° (NW) 08:48:09 29.354 - 29.394 USB, Beacon 29.352 USB
HO-68 19 Apr 08:44:10 08:47:13 13° 91° (E) 08:50:15 435.675 MHz FM
SO-67 19 Apr 09:20:12 09:22:07 14° 291° (WNW) 09:24:01 435.3500 MHz FM
Sapphire 19 Apr 09:23:32 09:27:38 21° 52° (NE) 09:31:42 437.095 MHz 1200 baud AX-25 AFSK
PANSAT 19 Apr 09:50:26 09:53:39 25° 173° (S) 09:56:51 not established
JAS-2 19 Apr 10:04:40 10:05:56 11° 297° (WNW) 10:07:12 435.800 - 435.900 CW/SSB, 435.910 FM
PCSat 19 Apr 10:07:39 10:12:57 53° 60° (ENE) 10:18:13 145.825 MHz
HO-68 19 Apr 10:28:27 10:35:41 90° 106° (ESE) 10:42:52 435.675 MHz FM
Saudisat 1A 19 Apr 10:30:16 10:33:53 25° 112° (ESE) 10:37:31 436.775 MHz
FUNcube-1 19 Apr 10:43:35 10:46:36 19° 95° (E) 10:49:39 145.950 - 145.970 MHz USB
RS-15 19 Apr 10:46:54 10:53:18 16° 336° (NNW) 10:59:39 29.354 - 29.394 USB, Beacon 29.352 USB
Oscar 11 19 Apr 10:53:06 10:57:29 86° 103° (ESE) 11:01:50 145.825 FM, Beacon 2401.500 USB
Sapphire 19 Apr 11:06:05 11:11:19 50° 249° (WSW) 11:16:30 437.095 MHz 1200 baud AX-25 AFSK
PANSAT 19 Apr 11:30:10 11:33:26 26° 185° (S) 11:36:41 not established
KITSAT 1 19 Apr 11:49:27 11:57:02 42° 54° (NE) 12:04:33 435.175 FM
PCSat 19 Apr 11:52:22 11:55:53 18° 255° (WSW) 11:59:24 145.825 MHz
Saudisat 1A 19 Apr 12:09:25 12:13:21 30° 307° (NW) 12:17:18 436.775 MHz
HO-68 19 Apr 12:18:26 12:22:23 16° 303° (WNW) 12:26:21 435.675 MHz FM
FUNcube-1 19 Apr 12:19:16 12:23:02 31° 288° (WNW) 12:26:52 145.950 - 145.970 MHz USB
Oscar 16 19 Apr 12:25:19 12:26:27 11° 61° (ENE) 12:27:35 437.025 USB, Beacon 2401.1428
Uribyol 2 19 Apr 12:59:28 13:01:30 12° 62° (ENE) 13:03:32 436.500 FM
RS-15 19 Apr 13:07:27 13:12:31 14° 16° (NNE) 13:17:35 29.354 - 29.394 USB, Beacon 29.352 USB
PANSAT 19 Apr 13:10:54 13:13:07 15° 198° (SSW) 13:15:20 not established
Oscar 10/S400 19 Apr 13:12:44 14:46:56 31° 265° (W) 18:21:57 145.825 - 145.975 CW/USB, Beacon 145.810 USB
AO-27 19 Apr 13:36:55 13:41:19 29° 69° (ENE) 13:45:43 436.795 MHz FM
KITSAT 1 19 Apr 13:44:56 13:52:21 41° 251° (WSW) 13:59:43 435.175 FM
ITAMSAT 1 19 Apr 13:47:19 13:51:59 35° 70° (ENE) 13:56:39 435.822 SSB
Oscar 19 19 Apr 13:51:39 13:56:46 76° 75° (ENE) 14:01:55 437.125 CW, 437.150 USB
AO-Echo 19 Apr 13:54:29 13:59:08 33° 70° (ENE) 14:03:42 ?
Oscar 16 19 Apr 13:59:55 14:05:03 83° 257° (WSW) 14:10:14 437.025 USB, Beacon 2401.1428
TMSAT-1 19 Apr 14:19:01 14:21:57 15° 64° (ENE) 14:24:53 436.925 FM
Uribyol 2 19 Apr 14:35:10 14:40:19 73° 258° (WSW) 14:45:29 436.500 FM
SO-50 19 Apr 14:47:47 14:51:04 20° 110° (ESE) 14:54:22 436.795 FM
AO-7 19 Apr 14:54:55 14:59:58 18° 54° (NE) 15:05:00 29.400 - 29.500 MHz
OPAL 19 Apr 15:07:27 15:11:55 28° 98° (E) 15:16:21 ?
Gurwin Techsat 1B 19 Apr 15:07:52 15:13:06 65° 74° (ENE) 15:18:22 435.225 FM
JAS-1B 19 Apr 15:09:54 15:16:54 33° 68° (ENE) 15:22:56 435.800 - 435.900 CW/SSB
AO-27 19 Apr 15:16:13 15:20:43 30° 263° (W) 15:25:14 436.795 MHz FM
RS-15 19 Apr 15:19:11 15:29:17 40° 48° (NE) 15:39:32 29.354 - 29.394 USB, Beacon 29.352 USB
ISS 19 Apr 15:19:18 15:22:38 88° 137° (SE) 15:25:59 145.800 FM
ITAMSAT 1 19 Apr 15:27:23 15:31:30 24° 264° (W) 15:35:37 435.822 SSB
AO-Echo 19 Apr 15:33:31 15:37:51 26° 264° (W) 15:42:09 ?
Oscar 19 19 Apr 15:36:27 15:36:36 10° 270° (W) 15:36:45 437.125 CW, 437.150 USB
Uosat F 19 Apr 15:51:24 15:56:08 43° 71° (ENE) 16:00:52 435.120 FM
TMSAT-1 19 Apr 15:56:05 16:01:18 61° 259° (W) 16:06:33 436.925 FM
SO-50 19 Apr 16:27:16 16:31:22 35° 306° (NW) 16:35:31 436.795 FM
AO-7 19 Apr 16:43:19 16:51:36 88° 72° (ENE) 16:59:56 29.400 - 29.500 MHz
OPAL 19 Apr 16:46:10 16:50:43 31° 293° (WNW) 16:55:15 ?
Gurwin Techsat 1B 19 Apr 16:51:07 16:53:28 13° 269° (W) 16:55:50 435.225 FM
ISS 19 Apr 16:58:00 16:59:47 14° 334° (NNW) 17:01:33 145.800 FM
JAS-1B 19 Apr 16:59:21 17:07:19 45° 260° (W) 17:14:04 435.800 - 435.900 CW/SSB
UOSAT-12 19 Apr 17:09:28 17:13:27 31° 112° (ESE) 17:17:30 437.025 FM, 437.400 FM
RS-15 19 Apr 17:31:21 17:41:58 58° 248° (WSW) 17:52:56 29.354 - 29.394 USB, Beacon 29.352 USB
Uosat F 19 Apr 17:31:37 17:35:04 18° 266° (W) 17:38:31 435.120 FM
JAS-2 19 Apr 18:26:42 18:31:18 25° 69° (ENE) 18:35:37 435.800 - 435.900 CW/SSB, 435.910 FM
Hamsat 19 Apr 18:32:57 18:37:08 80° 77° (ENE) 18:41:22 145.90 MHz
AO-7 19 Apr 18:40:40 18:45:14 16° 268° (W) 18:49:49 29.400 - 29.500 MHz
UOSAT-12 19 Apr 18:49:47 18:53:35 26° 309° (NW) 18:57:28 437.025 FM, 437.400 FM
Saudisat 1A 19 Apr 19:01:26 19:02:35 11° 44° (NE) 19:03:45 436.775 MHz
STRAND 1 19 Apr 19:24:06 19:29:01 48° 100° (E) 19:33:54 ?
SO-67 19 Apr 19:49:31 19:52:58 64° 260° (W) 19:56:27 435.3500 MHz FM
JAS-2 19 Apr 20:10:43 20:16:15 38° 261° (W) 20:21:18 435.800 - 435.900 CW/SSB, 435.910 FM
Saudisat 1A 19 Apr 20:38:23 20:42:48 85° 242° (WSW) 20:47:09 436.775 MHz
HO-68 19 Apr 20:53:38 21:00:26 51° 69° (ENE) 21:07:17 435.675 MHz FM
STRAND 1 19 Apr 21:04:26 21:07:48 18° 295° (WNW) 21:11:09 ?
FUNcube-1 19 Apr 21:39:58 21:40:54 11° 66° (ENE) 21:41:50 145.950 - 145.970 MHz USB
Oscar 11 19 Apr 21:45:21 21:49:26 45° 74° (ENE) 21:53:34 145.825 FM, Beacon 2401.500 USB
MaSat-1 19 Apr 21:49:03 21:52:07 64° 293° (WNW) 21:54:47 437.345 MHz
ISS 19 Apr 21:50:47 21:53:46 29° 35° (NE) 21:56:45 145.800 FM
HO-68 19 Apr 22:42:31 22:48:19 27° 264° (W) 22:54:11 435.675 MHz FM
FUNcube-1 19 Apr 23:12:42 23:16:50 55° 260° (W) 23:20:56 145.950 - 145.970 MHz USB
SO-50 19 Apr 23:23:05 23:24:32 11° 44° (NE) 23:26:00 436.795 FM
Oscar 11 19 Apr 23:23:55 23:25:50 13° 268° (W) 23:27:47 145.825 FM, Beacon 2401.500 USB
ISS 19 Apr 23:27:39 23:30:25 24° 230° (SW) 23:33:10 145.800 FM
Sapphire 20 Apr 00:02:10 00:06:54 32° 109° (ESE) 00:11:39 437.095 MHz 1200 baud AX-25 AFSK
PCSat 20 Apr 00:46:11 00:51:35 89° 116° (ESE) 00:57:02 145.825 MHz
SO-50 20 Apr 01:01:04 01:05:45 89° 62° (ENE) 01:10:29 436.795 FM
UOSAT-12 20 Apr 01:42:29 01:45:16 15° 46° (NE) 01:48:02 437.025 FM, 437.400 FM
Sapphire 20 Apr 01:45:30 01:50:15 31° 305° (NW) 01:55:02 437.095 MHz 1200 baud AX-25 AFSK
AO-27 20 Apr 01:54:37 01:56:41 12° 92° (E) 01:58:44 436.795 MHz FM
ITAMSAT 1 20 Apr 02:04:18 02:07:21 16° 93° (E) 02:10:24 435.822 SSB
Oscar 19 20 Apr 02:06:35 02:11:19 34° 98° (E) 02:16:00 437.125 CW, 437.150 USB
AO-Echo 20 Apr 02:07:11 02:08:36 11° 91° (E) 02:10:00 ?
KITSAT 1 20 Apr 02:14:24 02:21:49 41° 109° (ESE) 02:29:16 435.175 FM
Oscar 16 20 Apr 02:14:46 02:19:45 45° 99° (E) 02:24:42 437.025 USB, Beacon 2401.1428
OPAL 20 Apr 02:19:37 02:24:09 36° 68° (ENE) 02:28:46 ?
PCSat 20 Apr 02:33:16 02:35:45 13° 314° (NW) 02:38:14 145.825 MHz
Uribyol 2 20 Apr 02:50:58 02:56:00 51° 100° (E) 03:01:02 436.500 FM
UOSAT-12 20 Apr 03:21:11 03:25:52 65° 243° (WSW) 03:30:28 437.025 FM, 437.400 FM
Gurwin Techsat 1B 20 Apr 03:27:27 03:32:13 33° 97° (E) 03:36:56 435.225 FM
AO-27 20 Apr 03:31:27 03:36:35 66° 286° (WNW) 03:41:42 436.795 MHz FM
ITAMSAT 1 20 Apr 03:42:06 03:47:07 52° 287° (WNW) 03:52:07 435.822 SSB
AO-Echo 20 Apr 03:43:05 03:47:46 59° 286° (WNW) 03:52:22 ?
Oscar 19 20 Apr 03:46:15 03:50:27 25° 292° (WNW) 03:54:37 437.125 CW, 437.150 USB
Oscar 16 20 Apr 03:55:04 03:58:44 20° 294° (WNW) 04:02:23 437.025 USB, Beacon 2401.1428
OPAL 20 Apr 03:59:11 04:03:05 23° 263° (W) 04:07:03 ?
Uosat F 20 Apr 04:03:17 04:06:24 17° 94° (E) 04:09:31 435.120 FM
KITSAT 1 20 Apr 04:09:34 04:17:08 42° 306° (NW) 04:24:45 435.175 FM
TMSAT-1 20 Apr 04:14:52 04:20:09 69° 102° (ESE) 04:25:25 436.925 FM
Uribyol 2 20 Apr 04:31:44 04:35:02 17° 295° (WNW) 04:38:20 436.500 FM
JAS-1B 20 Apr 04:47:16 04:52:52 60° 102° (ESE) 04:58:49 435.800 - 435.900 CW/SSB
AO-7 20 Apr 04:48:41 04:56:10 36° 99° (E) 05:03:36 29.400 - 29.500 MHz
Gurwin Techsat 1B 20 Apr 05:07:38 05:12:01 27° 292° (WNW) 05:16:23 435.225 FM
RS-15 20 Apr 05:40:25 05:49:46 31° 105° (ESE) 05:58:49 29.354 - 29.394 USB, Beacon 29.352 USB
Uosat F 20 Apr 05:40:37 05:45:24 47° 288° (WNW) 05:50:10 435.120 FM
TMSAT-1 20 Apr 05:56:56 05:59:27 14° 297° (WNW) 06:01:57 436.925 FM
KITSAT 1 20 Apr 06:14:34 06:15:06 10° 331° (NNW) 06:15:39 435.175 FM
Hamsat 20 Apr 06:22:44 06:25:46 18° 94° (E) 06:28:46 145.90 MHz
STRAND 1 20 Apr 06:37:10 06:42:06 51° 73° (ENE) 06:47:03 ?
JAS-1B 20 Apr 06:39:54 06:43:04 15° 297° (WNW) 06:46:19 435.800 - 435.900 CW/SSB
AO-7 20 Apr 06:41:11 06:48:58 46° 295° (WNW) 06:56:46 29.400 - 29.500 MHz
SO-67 20 Apr 07:19:11 07:20:05 11° 92° (E) 07:20:59 435.3500 MHz FM
JAS-2 20 Apr 07:21:37 07:26:20 28° 98° (E) 07:31:26 435.800 - 435.900 CW/SSB, 435.910 FM
PANSAT 20 Apr 07:47:34 07:49:31 13° 161° (SSE) 07:51:27 not established
MaSat-1 20 Apr 07:52:42 07:55:43 42° 248° (WSW) 07:59:18 437.345 MHz
